Regional Weather Roundup
Issued by NWS

Home | Current Version | Previous Version | Graphics & Text | Print | Product List | Glossary On
Versions: 1 2 3 4 5 6 7 8 9 10 11 12 13 14 15 16 17 18 19 20 21 22 23 24 25 26 27 28 29 30 31 32 33 34 35 36 37 38 39 40 41 42 43 44 45 46 47 48 49 50
000
ASUS45 KABQ 040901
RWRNM
NEW MEXICO REGIONAL WEATHER ROUNDUP
NATIONAL WEATHER SERVICE ALBUQUERQUE NM
300 AM MDT WED MAY 04 2016

NOTE: "FAIR" MEANS FEW OR NO CLOUDS BELOW 12,000 FEET AGL WITH NO
       SIGNIFICANT WEATHER OR OBSTRUCTIONS TO VISION.

      THIS PRODUCT IS RELEASED AS TWO VERSIONS.  ONE VERSION NEAR
      THE TOP OF THE HOUR CONTAINING PRELIMINARY DATA FROM ALBUQUERQUE
      AND OTHER STATIONS.  A FINAL VERSION WITH ADDITIONAL DATA IS
      ISSUED ABOUT 10 MINUTES AFTER THE HOUR.

NMZ501-503-504-510>518-041000-
NORTHWEST PLATEAU/NORTHCENTRAL MOUNTAINS

CITY           SKY/WX    TMP DP  RH WIND       PRES   REMARKS
FARMINGTON     FAIR      44  37  76 NE7       30.25S
SANTA FE       FAIR      41  31  67 CALM      30.33R
TAOS           FAIR      34  23  64 N7        30.37R WCI  28

$$
NMZ402-403-502-505>509-041000-
WESTCENTRAL MOUNTAINS/SOUTHWEST MOUNTAINS

CITY           SKY/WX    TMP DP  RH WIND       PRES   REMARKS
GALLUP         FAIR      42  31  64 CALM      30.29F
GRANTS         FAIR      34  31  89 CALM      30.33S
SILVER CITY      N/A     50  25  37 CALM      30.25R

$$
NMZ407-409-411-412-041000-
SOUTHERN DESERTS

CITY           SKY/WX    TMP DP  RH WIND       PRES   REMARKS
LORDSBURG      FAIR      59  30  33 SE13      30.16R
DEMING         FAIR      55  26  32 NE9       30.19R
HOLLOMAN AFB   FAIR      53  31  41 NE2       30.18S
ALAMOGORDO     FAIR      59  30  33 NE5       30.21S
T OR C         FAIR      56  25  30 N7        30.22S

$$
NMZ519>523-041000-
CENTRAL VALLEYS/CENTRAL HIGHLANDS

CITY           SKY/WX    TMP DP  RH WIND       PRES   REMARKS
ALBUQUERQUE    FAIR      58  28  32 NE10      30.27F
DOUBLE EAGLE   FAIR      42  32  66 NW5       30.31S
MORIARTY ARPT  FAIR      31  24  75 NE6       30.35S WCI  25
CLINES CORNERS FAIR      42  21  43 SE6       30.35R
BELEN          FAIR      50  28  43 CALM      30.27S
SOCORRO        NOT AVBL

$$
NMZ524>526-539-540-041000-
SOUTHCENTRAL MOUNTAINS

CITY           SKY/WX    TMP DP  RH WIND       PRES   REMARKS
RUIDOSO        NOT AVBL

$$
NMZ527>531-041000-
NORTHEAST HIGHLANDS/NORTHEAST PLAINS

CITY           SKY/WX    TMP DP  RH WIND       PRES   REMARKS
LAS VEGAS      FAIR      38  29  70 NW6       30.35S WCI  33
RATON          FAIR      34  27  75 NE3       30.31S
CLAYTON        FAIR      45  33  63 W13       30.24S

$$
NMZ532>537-041000-
EASTCENTRAL PLAINS

CITY           SKY/WX    TMP DP  RH WIND       PRES   REMARKS
TUCUMCARI      FAIR      43  33  68 W5        30.23R
CANNON AFB     FAIR      44  33  64 NW5       30.24R
CLOVIS AIRPORT FAIR      39  30  70 NW6       30.24S WCI  35

$$
NMZ028-029-538-041000-
SOUTHEAST PLAINS

CITY           SKY/WX    TMP DP  RH WIND       PRES   REMARKS
ROSWELL        FAIR      49  31  49 NW5       30.23S
ARTESIA        FAIR      46  28  49 NW8       30.24R
CARLSBAD       FAIR      50  34  54 SW6       30.20S
HOBBS            N/A     43  43 100 NW8       30.23S


$$




USA.gov is the U.S. government's official web portal to all federal, state and local government web resources and services.